sat.trackr.live / text

‹ back to catalog

STARLINK-37049

NORAD 68152 · 2026-049L

PAYLOAD ACTIVE UNKNOWN

§ Identity

Operator
Country
US
Launch date
2026-03-13
Launch site
AFWTR
Launch vehicle
Mass (kg)
RCS (m²)

Purposes: comms

External: N2YO · Heavens-Above · Gunter

§ Orbital elements

Epoch: 2026-09-19T23:09:52.542144Z

Period
93.91 min
Inclination
97.2855°
Eccentricity
0.0000903
Mean motion
15.33454363 rev/d
Perigee alt
464.9 km
Apogee alt
466.1 km
Semi-major
6,843.7 km
B*
3.8848e-4
RAAN
283.0012°
Arg perigee
145.0429°
Mean anomaly
215.0873°
Rev number
2,942

§ Raw data

STARLINK-370491 68152U 26049L   26262.96519146  .00012491  00000+0  38848-3 0  99922 68152  97.2855 283.0012 0000903 145.0429 215.0873 15.33454363 29423

JSON: /api/v1/satellites/68152 · /tle

For live sub-satellite position, see the globe view (requires WebGL).

§ Visibility from observer

Set your observer location to see the next 7 days of passes ≥ 10°. The values pass through the URL so the page stays shareable.

No JS? Fill the form by hand. The geolocation button needs JavaScript.